FW4469 Weather Reports


Display with metric or nautical units.
time (UTC)temp
F
wind
direction
speed
MPH
gust
MPH
rain 1hr
in
rain 24hr
in
rain mn
in
humidity
%
barometer
mb
20260902094003 57 309 3.0 8.0 0.02 0.03 0.03 94 1018.1
20260902093223 57 319 3.0 8.0 0.02 0.03 0.03 93 1018.0
20260902092008 58 305 2.0 7.0 0.01 0.02 0.02 95 1018.3
20260902091218 58 319 3.0 9.0 0.00 0.02 0.02 94 1018.2
20260902090010 58 320 3.0 6.0 0.00 0.01 0.01 95 1018.3
20260902085003 58 317 3.0 7.0 0.00 0.01 0.01 96 1018.1
20260902084008 58 316 3.0 6.0 0.00 0.01 0.01 97 1018.2
20260902083009 58 313 2.0 7.0 0.00 0.01 0.01 97 1018.3
20260902082003 57 318 3.0 7.0 0.00 0.01 0.01 98 1018.1
20260902081003 57 317 3.0 7.0 0.00 0.01 0.01 98 1018.2
20260902080004 57 328 3.0 7.0 0.00 0.01 0.01 98 1018.3
20260902075222 57 329 3.0 7.0 0.00 0.01 0.01 98 1018.2
20260902074218 56 324 3.0 7.0 0.00 0.01 0.01 99 1018.2
20260902073008 56 320 3.0 7.0 0.00 0.01 0.01 99 1018.4
20260902072003 56 324 3.0 7.0 0.00 0.01 0.01 99 1018.2
20260902071003 55 316 3.0 7.0 0.00 0.01 0.01 98 1018.1
20260902070004 55 314 3.0 7.0 0.00 0.02 0.01 98 1018.3
20260902065003 55 313 3.0 7.0 0.00 0.01 0.01 98 1018.2
20260902064224 55 317 3.0 7.0 0.00 0.01 0.01 98 1018.1
20260902063008 55 304 2.0 6.0 0.00 0.01 0.01 98 1018.1
20260902062008 55 311 3.0 6.0 0.00 0.01 0.01 98 1018.0
20260902061223 55 310 3.0 7.0 0.00 0.01 0.01 98 1017.9
20260902060004 55 310 3.0 7.0 0.00 0.01 0.01 98 1018.1
20260902055008 55 321 3.0 8.0 0.00 0.01 0.01 98 1018.0
20260902054008 55 310 2.0 8.0 0.00 0.01 0.01 98 1017.9
20260902053003 55 313 3.0 6.0 0.01 0.01 0.01 98 1017.9
20260902052008 55 323 4.0 9.0 0.01 0.01 0.01 97 1018.0
20260902051223 55 312 3.0 9.0 0.01 0.01 0.01 97 1018.1
20260902050009 55 307 3.0 8.0 0.01 0.01 0.01 97 1018.1
20260902045008 55 324 3.0 10.0 0.00 0.01 0.00 96 1018.1
20260902044003 55 314 3.0 7.0 0.00 0.01 0.00 96 1018.1
20260902043008 55 290 3.0 8.0 0.00 0.00 0.00 96 1018.1
20260902042008 55 282 3.0 8.0 0.00 0.00 0.00 96 1018.1
20260902041008 55 318 4.0 10.0 0.00 0.00 0.00 96 1018.1
20260902040222 55 325 5.0 10.0 0.00 0.00 0.00 96 1018.2
20260902035003 55 330 3.0 8.0 0.00 0.00 0.00 96 1018.2
20260902034003 55 310 3.0 9.0 0.00 0.00 0.00 96 1018.3
20260902033003 55 304 3.0 8.0 0.00 0.00 0.00 96 1018.5
20260902032004 55 288 3.0 7.0 0.00 0.00 0.00 96 1018.5
20260902031218 55 338 5.0 14.0 0.00 0.00 0.00 96 1018.8
20260902030004 55 325 4.0 7.0 0.00 0.00 0.00 95 1018.4
20260902025008 55 306 4.0 8.0 0.00 0.00 0.00 95 1018.4
20260902024003 55 321 4.0 10.0 0.00 0.00 0.00 95 1018.5
20260902023004 55 291 3.0 7.0 0.00 0.00 0.00 95 1018.6
20260902022003 55 325 3.0 5.0 0.00 0.00 0.00 96 1018.9
20260902021003 55 337 4.0 8.0 0.00 0.00 0.00 97 1018.9
20260902020218 54 331 4.0 7.0 0.00 0.00 0.00 97 1019.2
20260902015008 54 324 3.0 8.0 0.00 0.00 0.00 98 1019.2
20260902014003 54 331 4.0 8.0 0.00 0.00 0.00 98 1019.3
20260902013217 54 333 4.0 8.0 0.00 0.00 0.00 98 1019.3
20260902012003 54 332 4.0 7.0 0.00 0.00 0.00 99 1019.2
20260902011008 54 325 3.0 6.0 0.00 0.00 0.00 98 1019.1
20260902010003 54 327 3.0 6.0 0.00 0.00 0.00 98 1019.4
20260902005003 54 325 3.0 6.0 0.00 0.00 0.00 98 1019.3
20260902004008 54 325 3.0 6.0 0.00 0.00 0.00 98 1019.2
20260902003011 54 321 3.0 6.0 0.00 0.00 0.00 98 1019.5
20260902002004 53 326 3.0 5.0 0.00 0.00 0.00 98 1019.6
20260902001006 54 326 3.0 7.0 0.00 0.00 0.00 98 1019.7
20260902000008 54 333 3.0 6.0 0.00 0.00 0.00 98 1019.4
20260901235008 53 326 3.0 5.0 0.00 0.00 0.00 98 1019.6
20260901234008 53 318 3.0 5.0 0.00 0.00 0.00 98 1019.7
20260901233009 53 323 2.0 4.0 0.00 0.00 0.00 98 1019.6
20260901232223 53 327 2.0 4.0 0.00 0.00 0.00 98 1019.7
20260901231003 53 331 2.0 4.0 0.00 0.00 0.00 98 1019.6
20260901230004 52 331 3.0 4.0 0.00 0.00 0.00 98 1019.8
20260901225004 53 332 3.0 4.0 0.00 0.00 0.00 98 1019.7
20260901224004 52 326 2.0 4.0 0.00 0.00 0.00 97 1019.8
20260901223006 52 323 2.0 3.0 0.00 0.00 0.00 97 1020.1
20260901222008 52 320 1.0 3.0 0.00 0.00 0.00 97 1019.8
20260901221006 52 317 2.0 3.0 0.00 0.00 0.00 96 1019.8
20260901220222 52 317 2.0 3.0 0.00 0.00 0.00 96 1019.8
20260901215008 52 318 2.0 3.0 0.00 0.00 0.00 95 1019.9
20260901214004 53 322 2.0 4.0 0.00 0.00 0.00 95 1020.1
20260901213222 53 320 2.0 4.0 0.00 0.00 0.00 95 1020.1
20260901212008 53 320 2.0 4.0 0.00 0.00 0.00 94 1020.2
20260901211003 54 324 2.0 4.0 0.00 0.00 0.00 94 1020.2
20260901210003 54 316 2.0 4.0 0.00 0.00 0.00 93 1020.2
20260901205008 54 319 2.0 4.0 0.00 0.00 0.00 92 1020.3
20260901204008 54 322 2.0 3.0 0.00 0.00 0.00 91 1020.0
20260901203008 55 321 3.0 7.0 0.00 0.00 0.00 91 1020.3
20260901202013 55 321 3.0 5.0 0.00 0.00 0.00 90 1020.1
20260901201008 55 321 3.0 5.0 0.00 0.00 0.00 89 1020.2
20260901200003 55 319 3.0 4.0 0.00 0.00 0.00 88 1020.3
20260901195008 56 319 3.0 6.0 0.00 0.00 0.00 87 1020.1
20260901194223 56 320 3.0 5.0 0.00 0.00 0.00 86 1020.2
20260901193008 56 322 3.0 4.0 0.00 0.00 0.00 85 1020.1
20260901192223 57 324 3.0 5.0 0.00 0.00 0.00 84 1019.9
20260901191217 57 323 3.0 7.0 0.00 0.00 0.00 84 1019.8
20260901190009 58 324 3.0 6.0 0.00 0.00 0.00 84 1019.9
20260901185003 58 317 3.0 6.0 0.00 0.00 0.00 84 1019.8
20260901184003 58 319 3.0 5.0 0.00 0.00 0.00 84 1019.9
20260901183223 58 315 3.0 7.0 0.00 0.00 0.00 84 1019.7
20260901182008 59 317 3.0 6.0 0.00 0.00 0.00 84 1019.7
20260901181217 59 317 3.0 5.0 0.00 0.00 0.00 86 1020.0
20260901180223 59 317 3.0 5.0 0.00 0.00 0.00 87 1019.9
20260901175440 59 314 3.0 7.0 0.00 0.00 0.00 87 1020.0
20260901174009 59 313 4.0 7.0 0.00 0.00 0.00 86 1020.1
20260901173008 59 314 3.0 7.0 0.00 0.00 0.00 87 1019.9
20260901172008 59 320 3.0 6.0 0.00 0.00 0.00 88 1019.8
20260901171003 59 323 3.0 6.0 0.00 0.00 0.00 89 1020.0
20260901170003 58 326 3.0 7.0 0.00 0.00 0.00 89 1020.3
20260901165004 58 324 4.0 9.0 0.00 0.00 0.00 88 1020.2
20260901164009 59 313 4.0 7.0 0.00 0.00 0.00 87 1020.0
20260901163218 59 321 3.0 8.0 0.00 0.00 0.00 85 1019.9
20260901162222 60 318 4.0 9.0 0.00 0.00 0.00 82 1019.9
20260901161008 62 316 5.0 11.0 0.00 0.00 0.00 76 1020.1
20260901160222 64 317 5.0 10.0 0.00 0.00 0.00 69 1019.9
20260901155003 64 315 5.0 12.0 0.00 0.00 0.00 68 1019.9
20260901154008 64 319 4.0 8.0 0.00 0.00 0.00 66 1019.9
20260901153008 65 317 4.0 8.0 0.00 0.00 0.00 67 1019.6
20260901152003 64 322 5.0 9.0 0.00 0.00 0.00 69 1019.8
20260901151008 65 320 5.0 8.0 0.00 0.00 0.00 67 1019.9
20260901150008 63 313 4.0 8.0 0.00 0.00 0.00 75 1020.0
20260901145003 62 318 4.0 7.0 0.00 0.00 0.00 75 1020.0
20260901144008 61 317 3.0 6.0 0.00 0.00 0.00 79 1020.1
20260901143003 60 318 4.0 9.0 0.00 0.00 0.00 79 1020.2
20260901142003 61 310 4.0 10.0 0.00 0.00 0.00 77 1020.3
20260901141008 62 316 4.0 8.0 0.00 0.00 0.00 72 1020.0
20260901140008 63 321 4.0 9.0 0.00 0.00 0.00 68 1020.0
20260901135004 64 315 4.0 7.0 0.00 0.00 0.00 68 1020.1
20260901134217 65 317 4.0 7.0 0.00 0.00 0.00 66 1020.1
20260901133008 65 313 4.0 9.0 0.00 0.00 0.00 69 1020.0
20260901132009 65 312 4.0 7.0 0.00 0.00 0.00 67 1020.0
20260901131003 62 312 4.0 6.0 0.00 0.00 0.00 72 1020.1
20260901130008 62 316 4.0 7.0 0.00 0.00 0.00 70 1020.4
20260901125008 62 316 4.0 7.0 0.00 0.00 0.00 69 1020.2
20260901124217 63 310 4.0 8.0 0.00 0.00 0.00 67 1020.3
20260901123003 63 315 4.0 10.0 0.00 0.00 0.00 66 1020.4
20260901122008 63 311 4.0 9.0 0.00 0.00 0.00 65 1020.3
20260901121009 64 308 4.0 9.0 0.00 0.00 0.00 63 1020.4
20260901120004 65 312 4.0 9.0 0.00 0.00 0.00 62 1020.3
20260901115003 66 313 4.0 9.0 0.00 0.00 0.00 60 1020.3
20260901114003 67 312 4.0 8.0 0.00 0.00 0.00 60 1020.1
20260901113003 66 312 5.0 10.0 0.00 0.00 0.00 60 1020.0
20260901112222 67 313 4.0 10.0 0.00 0.00 0.00 63 1020.2
20260901111009 66 313 4.0 8.0 0.00 0.00 0.00 61 1020.2
20260901110003 64 316 4.0 10.0 0.00 0.00 0.00 62 1020.2
20260901105218 63 321 4.0 10.0 0.00 0.00 0.00 62 1020.2
20260901104011 62 317 4.0 9.0 0.00 0.00 0.00 65 1020.4
20260901103003 60 314 4.0 9.0 0.00 0.00 0.00 65 1020.2
20260901102009 63 309 4.0 8.0 0.00 0.00 0.00 67 1020.5
20260901101003 61 319 4.0 9.0 0.00 0.00 0.00 71 1020.5
20260901100003 60 325 4.0 9.0 0.00 0.00 0.00 74 1020.5
20260901095220 61 321 4.0 9.0 0.00 0.00 0.00 75 1020.3